Home > Time Zones > World Clock > Weather > Italy > Bari > Past weeks

Flag for Italy Weather past 2 weeks in Bari, Italy

Now
64 °F

Scattered clouds.


Feels Like: 64 °F
Forecast: 54 / 68 °F
Wind: 7 mph from South

Location: Bari / Palese Macchie


UV Index: 3 (Moderate)

Visibility: N/A


Pressure: 29.77 "Hg

Humidity: 60%

Dew point: 50 °F

Location of BariLocation

Historic Weather in Bari

°F

Bari temperature yesterday

Maximum temperature yesterday: 57 °F (at 4:20 PM)
Minimum temperature yesterday: 48 °F (at 12:20 AM)
Average temperature yesterday: 53 °F

Past Weeks' High & Low Weather Summary

 TemperatureHumidityPressure
High72 °F (Apr 8, 11:50 AM)100% (Apr 4, 7:20 PM)30.12 "Hg (Apr 4, 7:20 PM)
Low45 °F (Apr 12, 4:50 AM)39% (Apr 16, 10:50 AM)29.62 "Hg (Apr 4, 4:20 PM)
Average57 °F77%29.92 "Hg
* Reported Apr 4 4:20 PM — Apr 19 4:20 PM, Bari, Weather by CustomWeather, © 2014

Note: Actual official high and low records may vary slightly from our data, if they occured in-between our weather recording intervals... More about our weather records

Advertising

Historic Weather Conditions — Data for Previous 24 hours

 ConditionsComfort  
Time TempWeatherWind HumidityBarometerVisibility
4:20 PM
Apr 19
64 °FScattered clouds.6 mph60%29.77 "HgN/A
3:50 PM64 °FPassing clouds.7 mph60%29.74 "HgN/A
3:20 PM64 °FPassing clouds.6 mph56%29.77 "HgN/A
2:50 PM68 °FSunny.8 mph53%29.74 "Hg10 mi
2:20 PM68 °FPassing clouds.8 mph53%29.74 "HgN/A
1:50 PM68 °FSunny.8 mph53%29.74 "Hg10 mi
1:20 PM68 °FPassing clouds.5 mph53%29.74 "HgN/A
12:50 PM68 °FSunny.6 mph53%29.74 "Hg10 mi
12:20 PM68 °FPassing clouds.5 mph53%29.74 "HgN/A
11:50 AM66 °FSunny.6 mph60%29.74 "Hg10 mi
11:20 AM66 °FSunny.5 mph60%29.74 "Hg10 mi
10:50 AM64 °FSunny.5 mph64%29.74 "Hg10 mi
9:50 AM63 °FSunny.7 mph68%29.74 "Hg10 mi
9:20 AM63 °FSunny.5 mph56%29.74 "Hg10 mi
8:50 AM59 °FSunny.5 mph59%29.74 "Hg10 mi
8:20 AM59 °FSunny.5 mph63%29.71 "Hg10 mi
7:50 AM57 °FSunny.6 mph67%29.71 "Hg10 mi
7:20 AM54 °FSunny.7 mph72%29.71 "Hg10 mi
6:50 AM54 °FClear.6 mph72%29.71 "Hg10 mi
5:20 AM54 °FPassing clouds.10 mph72%29.68 "HgN/A
4:50 AM54 °FPassing clouds.10 mph72%29.68 "HgN/A
4:20 AM52 °FPassing clouds.7 mph72%29.68 "HgN/A
3:50 AM52 °FPassing clouds.7 mph72%29.68 "HgN/A
2:50 AM52 °FPassing clouds.7 mph72%29.68 "HgN/A
2:20 AM54 °FPassing clouds.10 mph67%29.68 "HgN/A
1:50 AM52 °FPassing clouds.9 mph77%29.71 "HgN/A
1:20 AM55 °FPassing clouds.8 mph67%29.71 "HgN/A
12:50 AM55 °FPassing clouds.9 mph67%29.71 "HgN/A
12:20 AM55 °FPassing clouds.12 mph67%29.68 "HgN/A
11:50 PM
Apr 18
55 °FPassing clouds.9 mph67%29.71 "HgN/A
10:50 PM54 °FPassing clouds.10 mph72%29.71 "HgN/A
10:20 PM55 °FPassing clouds.12 mph67%29.71 "HgN/A
9:50 PM55 °FPassing clouds.10 mph72%29.71 "HgN/A
9:20 PM54 °FPassing clouds.12 mph72%29.68 "HgN/A
8:50 PM54 °FPassing clouds.10 mph77%29.68 "HgN/A
8:20 PM54 °FScattered clouds.12 mph77%29.68 "HgN/A
7:50 PM55 °FScattered clouds.10 mph77%29.68 "HgN/A
7:20 PM55 °FPartly sunny.12 mph77%29.68 "HgN/A
6:50 PM57 °FPartly sunny.10 mph72%29.68 "HgN/A
6:20 PM57 °FPartly sunny.8 mph77%29.68 "HgN/A
5:50 PM57 °FPartly sunny.13 mph77%29.68 "HgN/A
5:20 PM57 °FPartly sunny.13 mph77%29.68 "HgN/A
Weather by CustomWeather, © 2014

See weather overview